| time (UTC) | temp F | wind direction | speed knots | gust knots | rain 1hr in | rain 24hr in | rain mn in | humidity % | barometer mb |
| 20260504100425 | 47 | 244 | 0.9 | 0.9 | 0.00 | 0.00 | 0.00 | 69 | 1009.9 |
| 20260504081817 | 48 | 245 | 0.0 | 2.6 | 0.00 | 0.00 | 0.00 | 57 | 1010.7 |
| 20260504081308 | 49 | 161 | 0.9 | 3.5 | 0.00 | 0.00 | 0.00 | 55 | 1010.6 |
| 20260504080804 | 49 | 161 | 0.9 | 3.5 | 0.00 | 0.00 | 0.00 | 55 | 1010.6 |
| 20260504080301 | 49 | 224 | 2.6 | 8.7 | 0.00 | 0.00 | 0.00 | 56 | 1010.8 |
| 20260504070228 | 44 | 242 | 0.0 | 0.9 | 0.00 | 0.00 | 0.00 | 75 | 1010.6 |
| 20260504060149 | 42 | 137 | 0.0 | 0.0 | 0.00 | 0.00 | 0.00 | 83 | 1011.2 |
| 20260504050617 | 41 | 316 | 0.0 | 0.0 | 0.00 | 0.00 | 0.00 | 85 | 1011.6 |
| 20260504050114 | 40 | 316 | 0.0 | 0.0 | 0.00 | 0.00 | 0.00 | 86 | 1011.4 |
| 20260504045611 | 40 | 316 | 0.0 | 0.0 | 0.00 | 0.00 | 0.00 | 85 | 1011.4 |
| 20260504045106 | 40 | 316 | 0.0 | 0.0 | 0.00 | 0.00 | 0.00 | 84 | 1011.4 |
| 20260504044604 | 39 | 316 | 0.0 | 0.0 | 0.00 | 0.00 | 0.00 | 85 | 1011.3 |
| 20260504044100 | 39 | 316 | 0.0 | 0.0 | 0.00 | 0.00 | 0.00 | 86 | 1011.2 |
| 20260504043558 | 39 | 316 | 0.0 | 0.0 | 0.00 | 0.00 | 0.00 | 87 | 1011.1 |
| 20260504043055 | 38 | 316 | 0.0 | 0.0 | 0.00 | 0.00 | 0.00 | 87 | 1011.4 |
| 20260504042552 | 38 | 316 | 0.0 | 0.0 | 0.00 | 0.00 | 0.00 | 88 | 1011.4 |
| 20260504042049 | 38 | 316 | 0.0 | 0.0 | 0.00 | 0.00 | 0.00 | 89 | 1011.3 |
| 20260504041545 | 37 | 316 | 0.0 | 0.0 | 0.00 | 0.00 | 0.00 | 88 | 1011.3 |
| 20260504041041 | 37 | 316 | 0.0 | 0.0 | 0.00 | 0.00 | 0.00 | 88 | 1011.0 |
| 20260504040538 | 37 | 316 | 0.0 | 0.0 | 0.00 | 0.00 | 0.00 | 89 | 1011.4 |
| 20260504040035 | 36 | 316 | 0.0 | 0.9 | 0.00 | 0.00 | 0.00 | 88 | 1011.2 |
| 20260504035532 | 36 | 316 | 0.0 | 0.0 | 0.00 | 0.00 | 0.00 | 90 | 1011.5 |
| 20260504035028 | 36 | 316 | 0.0 | 0.0 | 0.00 | 0.00 | 0.00 | 88 | 1011.6 |
| 20260504034526 | 36 | 316 | 0.0 | 0.0 | 0.00 | 0.00 | 0.00 | 88 | 1011.5 |
| 20260504034023 | 36 | 316 | 0.0 | 0.0 | 0.00 | 0.00 | 0.00 | 87 | 1011.4 |
| 20260504033521 | 36 | 316 | 0.0 | 0.0 | 0.00 | 0.00 | 0.00 | 88 | 1011.5 |
| 20260504033018 | 36 | 316 | 0.0 | 0.0 | 0.00 | 0.00 | 0.00 | 88 | 1011.4 |
| 20260504032515 | 37 | 316 | 0.0 | 0.0 | 0.00 | 0.00 | 0.00 | 87 | 1011.4 |
| 20260504032011 | 37 | 316 | 0.0 | 0.9 | 0.00 | 0.00 | 0.00 | 84 | 1011.6 |
| 20260504031509 | 37 | 316 | 0.0 | 0.0 | 0.00 | 0.00 | 0.00 | 84 | 1011.6 |
| 20260504031005 | 37 | 316 | 0.0 | 0.0 | 0.00 | 0.00 | 0.00 | 82 | 1011.5 |
| 20260504030502 | 37 | 316 | 0.0 | 0.9 | 0.00 | 0.00 | 0.00 | 83 | 1011.6 |
| 20260504025958 | 38 | 315 | 0.0 | 0.0 | 0.00 | 0.00 | 0.00 | 82 | 1011.6 |
| 20260504025455 | 38 | 315 | 0.0 | 0.0 | 0.00 | 0.00 | 0.00 | 81 | 1011.6 |
| 20260504024952 | 38 | 315 | 0.0 | 0.9 | 0.00 | 0.00 | 0.00 | 79 | 1011.6 |
| 20260504024449 | 38 | 308 | 0.0 | 0.0 | 0.00 | 0.00 | 0.00 | 81 | 1011.6 |
| 20260504023946 | 39 | 299 | 0.0 | 0.9 | 0.00 | 0.00 | 0.00 | 79 | 1011.6 |
| 20260504023442 | 39 | 260 | 0.0 | 0.0 | 0.00 | 0.00 | 0.00 | 80 | 1012.0 |
| 20260504022938 | 39 | 308 | 0.0 | 0.9 | 0.00 | 0.00 | 0.00 | 79 | 1011.5 |
| 20260504022435 | 39 | 286 | 0.9 | 0.9 | 0.00 | 0.00 | 0.00 | 79 | 1011.4 |
| 20260504021931 | 40 | 282 | 0.0 | 0.0 | 0.00 | 0.00 | 0.00 | 78 | 1011.6 |
| 20260504021429 | 39 | 282 | 0.0 | 0.0 | 0.00 | 0.00 | 0.00 | 78 | 1011.5 |
| 20260504020926 | 40 | 282 | 0.0 | 0.0 | 0.00 | 0.00 | 0.00 | 81 | 1011.6 |
| 20260504020422 | 40 | 282 | 0.0 | 0.0 | 0.00 | 0.00 | 0.00 | 80 | 1011.8 |
| 20260504015919 | 41 | 282 | 0.0 | 0.0 | 0.00 | 0.00 | 0.00 | 77 | 1011.5 |
| 20260504015415 | 41 | 282 | 0.0 | 0.0 | 0.00 | 0.00 | 0.00 | 74 | 1011.6 |
| 20260504014911 | 42 | 239 | 0.0 | 0.0 | 0.00 | 0.00 | 0.00 | 76 | 1011.6 |
| 20260504014407 | 42 | 307 | 0.0 | 0.0 | 0.00 | 0.00 | 0.00 | 75 | 1011.6 |
| 20260504013904 | 43 | 308 | 0.0 | 0.0 | 0.00 | 0.00 | 0.00 | 73 | 1011.7 |
| 20260504013403 | 43 | 316 | 0.0 | 0.9 | 0.00 | 0.00 | 0.00 | 71 | 1011.6 |
| 20260504012858 | 43 | 285 | 0.0 | 0.0 | 0.00 | 0.00 | 0.00 | 74 | 1011.7 |
| 20260504012357 | 44 | 283 | 0.0 | 0.0 | 0.00 | 0.00 | 0.00 | 72 | 1011.5 |
| 20260504011854 | 43 | 290 | 0.0 | 0.0 | 0.00 | 0.00 | 0.00 | 70 | 1011.4 |
| 20260504011350 | 44 | 290 | 0.0 | 0.0 | 0.00 | 0.00 | 0.00 | 70 | 1011.3 |
| 20260504010846 | 44 | 290 | 0.0 | 0.0 | 0.00 | 0.00 | 0.00 | 70 | 1011.3 |
| 20260504010342 | 44 | 290 | 0.0 | 0.0 | 0.00 | 0.00 | 0.00 | 68 | 1011.4 |
| 20260504005839 | 44 | 290 | 0.0 | 0.0 | 0.00 | 0.00 | 0.00 | 66 | 1011.4 |
| 20260504005336 | 44 | 289 | 0.0 | 0.0 | 0.00 | 0.00 | 0.00 | 62 | 1011.4 |
| 20260504004833 | 45 | 289 | 0.0 | 0.0 | 0.00 | 0.00 | 0.00 | 62 | 1011.5 |
| 20260504004331 | 46 | 289 | 0.0 | 0.0 | 0.00 | 0.00 | 0.00 | 63 | 1011.5 |
| 20260504003827 | 46 | 283 | 0.0 | 0.0 | 0.00 | 0.00 | 0.00 | 67 | 1011.3 |
| 20260504003324 | 47 | 283 | 0.0 | 0.0 | 0.00 | 0.00 | 0.00 | 62 | 1011.3 |
| 20260504002821 | 47 | 282 | 0.0 | 0.0 | 0.00 | 0.00 | 0.00 | 55 | 1011.2 |
| 20260504002317 | 48 | 280 | 0.0 | 0.0 | 0.00 | 0.00 | 0.00 | 58 | 1011.1 |
| 20260504001815 | 49 | 209 | 0.0 | 0.0 | 0.00 | 0.00 | 0.00 | 53 | 1011.3 |
| 20260504001312 | 49 | 268 | 0.0 | 0.0 | 0.00 | 0.00 | 0.00 | 51 | 1011.3 |
| 20260504000809 | 49 | 234 | 0.0 | 0.9 | 0.00 | 0.00 | 0.00 | 46 | 1011.6 |
| 20260504000306 | 50 | 292 | 0.0 | 0.9 | 0.00 | 0.00 | 0.00 | 54 | 1011.2 |
| 20260503235804 | 50 | 253 | 0.0 | 0.0 | 0.00 | 0.00 | 0.00 | 47 | 1011.5 |
| 20260503235301 | 50 | 248 | 0.0 | 0.9 | 0.00 | 0.00 | 0.00 | 47 | 1011.5 |
| 20260503234759 | 51 | 229 | 0.0 | 1.7 | 0.00 | 0.00 | 0.00 | 44 | 1011.5 |
| 20260503234256 | 51 | 23 | 0.0 | 0.9 | 0.00 | 0.00 | 0.00 | 49 | 1011.5 |
| 20260503233754 | 51 | 255 | 0.0 | 0.9 | 0.00 | 0.00 | 0.00 | 49 | 1011.5 |
| 20260503233249 | 52 | 140 | 0.0 | 0.0 | 0.00 | 0.00 | 0.00 | 44 | 1011.5 |
| 20260503232746 | 52 | 196 | 0.0 | 2.6 | 0.00 | 0.00 | 0.00 | 43 | 1011.5 |
| 20260503232243 | 52 | 304 | 4.3 | 6.1 | 0.00 | 0.00 | 0.00 | 43 | 1011.3 |
| 20260503231741 | 53 | 132 | 0.9 | 3.5 | 0.00 | 0.00 | 0.00 | 41 | 1011.6 |
| 20260503231238 | 53 | 189 | 7.8 | 11.3 | 0.00 | 0.00 | 0.00 | 40 | 1011.4 |
| 20260503230734 | 54 | 301 | 0.9 | 1.7 | 0.00 | 0.00 | 0.00 | 44 | 1011.6 |
| 20260503230232 | 54 | 164 | 2.6 | 2.6 | 0.00 | 0.00 | 0.00 | 41 | 1011.6 |
| 20260503225724 | 55 | 161 | 1.7 | 6.1 | 0.00 | 0.00 | 0.00 | 41 | 1011.6 |
| 20260503225223 | 55 | 306 | 2.6 | 3.5 | 0.00 | 0.00 | 0.00 | 43 | 1011.5 |
| 20260503224720 | 55 | 190 | 1.7 | 5.2 | 0.00 | 0.00 | 0.00 | 39 | 1011.5 |
| 20260503224218 | 54 | 240 | 0.9 | 2.6 | 0.00 | 0.00 | 0.00 | 40 | 1011.4 |
| 20260503223715 | 55 | 303 | 4.3 | 6.1 | 0.00 | 0.00 | 0.00 | 41 | 1011.8 |
| 20260503223213 | 55 | 4 | 0.0 | 1.7 | 0.00 | 0.00 | 0.00 | 48 | 1011.5 |
| 20260503222709 | 55 | 176 | 0.9 | 2.6 | 0.00 | 0.00 | 0.00 | 37 | 1011.3 |
| 20260503222207 | 55 | 175 | 1.7 | 6.1 | 0.00 | 0.00 | 0.00 | 40 | 1011.7 |
| 20260503221705 | 55 | 331 | 4.3 | 7.0 | 0.00 | 0.00 | 0.00 | 40 | 1011.6 |
| 20260503221202 | 55 | 316 | 2.6 | 5.2 | 0.00 | 0.00 | 0.00 | 39 | 1011.5 |
| 20260503220659 | 55 | 273 | 1.7 | 5.2 | 0.00 | 0.00 | 0.00 | 40 | 1011.7 |
| 20260503220155 | 55 | 188 | 0.9 | 5.2 | 0.00 | 0.00 | 0.00 | 39 | 1011.6 |
| 20260503215653 | 55 | 181 | 2.6 | 5.2 | 0.00 | 0.00 | 0.00 | 37 | 1011.6 |
| 20260503215149 | 55 | 214 | 3.5 | 9.6 | 0.00 | 0.00 | 0.00 | 39 | 1011.7 |
| 20260503214648 | 55 | 262 | 4.3 | 7.0 | 0.00 | 0.00 | 0.00 | 39 | 1011.7 |
| 20260503214143 | 55 | 158 | 1.7 | 5.2 | 0.00 | 0.00 | 0.00 | 39 | 1011.5 |
| 20260503213637 | 55 | 288 | 7.8 | 12.2 | 0.00 | 0.00 | 0.00 | 40 | 1011.5 |
| 20260503213133 | 55 | 296 | 2.6 | 6.1 | 0.00 | 0.00 | 0.00 | 39 | 1011.6 |
| 20260503212631 | 56 | 175 | 5.2 | 7.8 | 0.00 | 0.00 | 0.00 | 40 | 1011.6 |
| 20260503212128 | 56 | 169 | 0.9 | 6.1 | 0.00 | 0.00 | 0.00 | 36 | 1011.4 |
| 20260503211626 | 55 | 155 | 1.7 | 7.8 | 0.00 | 0.00 | 0.00 | 38 | 1011.4 |
| 20260503211121 | 55 | 267 | 2.6 | 6.1 | 0.00 | 0.00 | 0.00 | 44 | 1011.7 |
| 20260503210618 | 55 | 163 | 4.3 | 8.7 | 0.00 | 0.00 | 0.00 | 42 | 1011.5 |
| 20260503210114 | 55 | 109 | 1.7 | 7.0 | 0.00 | 0.00 | 0.00 | 39 | 1011.6 |
| 20260503205611 | 55 | 198 | 1.7 | 7.0 | 0.00 | 0.00 | 0.00 | 40 | 1011.6 |
| 20260503205107 | 55 | 152 | 7.0 | 13.9 | 0.00 | 0.00 | 0.00 | 40 | 1012.0 |
| 20260503204604 | 55 | 262 | 2.6 | 13.9 | 0.00 | 0.00 | 0.00 | 42 | 1012.0 |
| 20260503204101 | 55 | 222 | 3.5 | 8.7 | 0.00 | 0.00 | 0.00 | 39 | 1011.7 |
| 20260503203558 | 55 | 297 | 2.6 | 7.8 | 0.00 | 0.00 | 0.00 | 39 | 1012.1 |
| 20260503203055 | 54 | 171 | 4.3 | 6.1 | 0.00 | 0.00 | 0.00 | 39 | 1012.2 |
| 20260503202553 | 54 | 347 | 4.3 | 7.8 | 0.00 | 0.00 | 0.00 | 42 | 1012.0 |
| 20260503201918 | 55 | 250 | 7.0 | 12.2 | 0.00 | 0.00 | 0.00 | 38 | 1012.3 |
| 20260503201415 | 55 | 250 | 7.0 | 12.2 | 0.00 | 0.00 | 0.00 | 38 | 1012.3 |
| 20260503200912 | 55 | 296 | 3.5 | 6.1 | 0.00 | 0.00 | 0.00 | 40 | 1012.3 |
| 20260503200408 | 55 | 198 | 4.3 | 7.0 | 0.00 | 0.00 | 0.00 | 39 | 1012.4 |
| 20260503195905 | 55 | 212 | 2.6 | 6.1 | 0.00 | 0.00 | 0.00 | 40 | 1012.6 |
| 20260503195402 | 55 | 300 | 3.5 | 7.0 | 0.00 | 0.00 | 0.00 | 41 | 1012.6 |
| 20260503194859 | 55 | 149 | 8.7 | 12.2 | 0.00 | 0.00 | 0.00 | 42 | 1012.5 |
| 20260503194355 | 55 | 301 | 3.5 | 6.1 | 0.00 | 0.00 | 0.00 | 44 | 1012.4 |
| 20260503193851 | 54 | 341 | 2.6 | 3.5 | 0.00 | 0.00 | 0.00 | 44 | 1012.7 |
| 20260503193347 | 53 | 222 | 1.7 | 8.7 | 0.00 | 0.00 | 0.00 | 42 | 1012.7 |
| 20260503192843 | 52 | 235 | 0.9 | 3.5 | 0.00 | 0.00 | 0.00 | 40 | 1012.7 |
| 20260503192339 | 55 | 241 | 2.6 | 6.1 | 0.00 | 0.00 | 0.00 | 39 | 1012.8 |
| 20260503191835 | 53 | 302 | 0.9 | 3.5 | 0.00 | 0.00 | 0.00 | 43 | 1012.9 |
| 20260503191332 | 53 | 219 | 2.6 | 6.1 | 0.00 | 0.00 | 0.00 | 44 | 1013.0 |
| 20260503190829 | 54 | 308 | 3.5 | 12.2 | 0.00 | 0.00 | 0.00 | 47 | 1012.8 |
| 20260503190326 | 54 | 144 | 3.5 | 5.2 | 0.00 | 0.00 | 0.00 | 39 | 1013.0 |
| 20260503185823 | 53 | 326 | 3.5 | 6.1 | 0.00 | 0.00 | 0.00 | 43 | 1012.9 |
| 20260503185319 | 53 | 196 | 2.6 | 5.2 | 0.00 | 0.00 | 0.00 | 44 | 1013.1 |
| 20260503184820 | 53 | 240 | 4.3 | 11.3 | 0.00 | 0.00 | 0.00 | 39 | 1013.4 |
| 20260503184316 | 53 | 309 | 4.3 | 7.8 | 0.00 | 0.00 | 0.00 | 42 | 1013.3 |
| 20260503183811 | 53 | 312 | 1.7 | 3.5 | 0.00 | 0.00 | 0.00 | 41 | 1013.2 |
| 20260503183309 | 53 | 248 | 3.5 | 9.6 | 0.00 | 0.00 | 0.00 | 43 | 1013.3 |
| 20260503182806 | 52 | 148 | 4.3 | 15.6 | 0.00 | 0.00 | 0.00 | 44 | 1013.3 |
| 20260503182306 | 52 | 328 | 2.6 | 2.6 | 0.00 | 0.00 | 0.00 | 40 | 1013.3 |
| 20260503181802 | 52 | 310 | 7.8 | 9.6 | 0.00 | 0.00 | 0.00 | 47 | 1013.5 |
| 20260503181259 | 51 | 315 | 7.0 | 9.6 | 0.00 | 0.00 | 0.00 | 46 | 1013.4 |
| 20260503180755 | 52 | 319 | 0.9 | 9.6 | 0.00 | 0.00 | 0.00 | 42 | 1013.4 |
| 20260503180254 | 53 | 322 | 5.2 | 13.9 | 0.00 | 0.00 | 0.00 | 50 | 1013.3 |
| 20260503175749 | 52 | 341 | 1.7 | 6.1 | 0.00 | 0.00 | 0.00 | 49 | 1013.6 |
| 20260503175248 | 52 | 322 | 4.3 | 7.8 | 0.00 | 0.00 | 0.00 | 43 | 1013.9 |
| 20260503174743 | 51 | 336 | 8.7 | 11.3 | 0.00 | 0.00 | 0.00 | 49 | 1013.4 |
| 20260503174242 | 50 | 247 | 6.1 | 13.9 | 0.00 | 0.00 | 0.00 | 46 | 1013.9 |
| 20260503173742 | 52 | 240 | 2.6 | 3.5 | 0.00 | 0.00 | 0.00 | 47 | 1014.0 |
| 20260503173238 | 51 | 303 | 1.7 | 5.2 | 0.00 | 0.00 | 0.00 | 46 | 1013.7 |
| 20260503172735 | 51 | 160 | 1.7 | 12.2 | 0.00 | 0.00 | 0.00 | 51 | 1013.7 |
| 20260503172232 | 51 | 263 | 0.9 | 6.1 | 0.00 | 0.00 | 0.00 | 49 | 1014.1 |
| 20260503171729 | 51 | 319 | 7.0 | 9.6 | 0.00 | 0.00 | 0.00 | 47 | 1013.9 |
| 20260503171226 | 49 | 166 | 0.9 | 6.1 | 0.00 | 0.00 | 0.00 | 52 | 1014.0 |
| 20260503170723 | 49 | 187 | 4.3 | 11.3 | 0.00 | 0.00 | 0.00 | 53 | 1014.1 |
| 20260503170220 | 50 | 255 | 10.4 | 13.9 | 0.00 | 0.00 | 0.00 | 48 | 1013.9 |
| 20260503160141 | 48 | 150 | 5.2 | 7.8 | 0.00 | 0.00 | 0.00 | 55 | 1014.6 |
| 20260503150611 | 46 | 330 | 2.6 | 7.0 | 0.00 | 0.00 | 0.00 | 57 | 1015.0 |
| 20260503150108 | 45 | 302 | 4.3 | 7.8 | 0.00 | 0.00 | 0.00 | 58 | 1014.8 |
| 20260503131001 | 40 | 303 | 5.2 | 7.0 | 0.00 | 0.00 | 0.00 | 78 | 1014.8 |
| 20260503130459 | 41 | 166 | 4.3 | 7.8 | 0.00 | 0.00 | 0.00 | 78 | 1014.9 |
| 20260503110343 | 33 | 283 | 1.7 | 2.6 | 0.00 | 0.00 | 0.00 | 95 | 1013.5 |